Label,Date and Time,Document,Scale,Scale Units,Scale Factor,Area,ID,Population,Group,Abbreviation,Groups
Measurement 1,2019-01-18T12:14:54+13:00,OnegWE25_4th.bmp,Custom (1796 pixel(s) = 10.0000 mm),mm,179.6,13.97206,OnegWE25,Wellington,North_Is.,WE,Central_NZ
Measurement 2,2019-01-18T12:15:43+13:00,OnegWE18_4th.bmp,Custom (1760 pixel(s) = 10.0000 mm),mm,176,7.455546,OnegWE18,Wellington,North_Is.,WE,Central_NZ
Measurement 3,2019-01-18T12:16:54+13:00,OnegWE17_4th.bmp,Custom (1337 pixel(s) = 10.0000 mm),mm,133.7,70.040933,OnegWE17,Wellington,North_Is.,WE,Central_NZ
Measurement 4,2019-01-18T12:17:19+13:00,OnegWE14_4th.bmp,Custom (1234 pixel(s) = 10.0000 mm),mm,123.4,35.249968,OnegWE14,Wellington,North_Is.,WE,Central_NZ
Measurement 5,2019-01-18T12:19:10+13:00,OnegWE04_4th.bmp,Custom (1293 pixel(s) = 10.0000 mm),mm,129.3,31.228777,OnegWE04,Wellington,North_Is.,WE,Central_NZ
Measurement 6,2019-01-18T12:19:39+13:00,OnegTI22_4th_b.bmp,Custom (1281 pixel(s) = 10.0000 mm),mm,128.1,72.983392,OnegTI22,Auckland,North_Is.,TI,North_Is.
Measurement 7,2019-01-18T12:20:16+13:00,OnegST14_4th.bmp,Custom (1796 pixel(s) = 10.0000 mm),mm,179.6,21.49267,OnegST14,Stewart_Is.,South_Is.,ST,South_Is.
Measurement 8,2019-01-18T12:36:16+13:00,OnegST13_4th.bmp,Custom (1797 pixel(s) = 10.0000 mm),mm,179.7,17.786492,OnegST13,Stewart_Is.,South_Is.,ST,South_Is.
Measurement 9,2019-01-18T12:36:40+13:00,OnegST12_4th.bmp,Custom (1305 pixel(s) = 10.0000 mm),mm,130.5,38.900662,OnegST12,Stewart_Is.,South_Is.,ST,South_Is.
Measurement 10,2019-01-18T12:37:55+13:00,OnegST11_4th.bmp,Custom (1293 pixel(s) = 10.0000 mm),mm,129.3,45.374433,OnegST11,Stewart_Is.,South_Is.,ST,South_Is.
Measurement 11,2019-01-18T12:40:25+13:00,OnegST10_4th.bmp,Custom (1305 pixel(s) = 10.0000 mm),mm,130.5,55.931534,OnegST10,Stewart_Is.,South_Is.,ST,South_Is.
Measurement 13,2019-01-18T12:41:58+13:00,OnegST07_4th.bmp,Custom (1305 pixel(s) = 10.0000 mm),mm,130.5,70.193861,OnegST07,Stewart_Is.,South_Is.,ST,South_Is.
Measurement 14,2019-01-18T12:42:25+13:00,OnegST06_4th.bmp,Custom (1305 pixel(s) = 10.0000 mm),mm,130.5,41.130283,OnegST06,Stewart_Is.,South_Is.,ST,South_Is.
Measurement 15,2019-01-18T14:31:49+13:00,OnegST09_4th.bmp,Custom (1296 pixel(s) = 10.0000 mm),mm,129.6,67.058304,OnegST09,Stewart_Is.,South_Is.,ST,South_Is.
Measurement 16,2019-01-18T14:32:12+13:00,OnegST05_4th.bmp,Custom (1257 pixel(s) = 10.0000 mm),mm,125.7,41.276441,OnegST05,Stewart_Is.,South_Is.,ST,South_Is.
Measurement 17,2019-01-18T14:32:32+13:00,OnegRU18_4th.bmp,Custom (1761 pixel(s) = 10.0000 mm),mm,176.1,19.086195,OnegRU18,Russell,North_Is.,RU,North_Is.
Measurement 18,2019-01-18T14:33:04+13:00,OnegEC09_4th.bmp,Custom (1258 pixel(s) = 10.0000 mm),mm,125.8,64.264826,OnegEC09,East_Cape,North_Is.,EC,North_Is.
Measurement 19,2019-01-18T14:33:31+13:00,OnegEC08_4th.bmp,Custom (1269 pixel(s) = 10.0000 mm),mm,126.9,23.770012,OnegEC08,East_Cape,North_Is.,EC,North_Is.
Measurement 20,2019-01-18T14:33:51+13:00,OnegEC07_4th.bmp,Custom (1281 pixel(s) = 10.0000 mm),mm,128.1,60.008556,OnegEC07,East_Cape,North_Is.,EC,North_Is.
Measurement 21,2019-01-18T14:34:14+13:00,OnegEC06_4th.bmp,Custom (1281 pixel(s) = 10.0000 mm),mm,128.1,67.26595,OnegEC06,East_Cape,North_Is.,EC,North_Is.
Measurement 22,2019-01-18T14:34:40+13:00,OnegEC04_4th.bmp,Custom (1281 pixel(s) = 10.0000 mm),mm,128.1,85.616172,OnegEC04,East_Cape,North_Is.,EC,North_Is.
Measurement 23,2019-01-18T14:34:59+13:00,OnegEC03_4th.bmp,Custom (1294 pixel(s) = 10.0000 mm),mm,129.4,73.793146,OnegEC03,East_Cape,North_Is.,EC,North_Is.
Measurement 24,2019-01-18T14:35:20+13:00,OnegEC02_4th.bmp,Custom (1246 pixel(s) = 10.0000 mm),mm,124.6,67.685808,OnegEC02,East_Cape,North_Is.,EC,North_Is.
Measurement 25,2019-01-18T14:35:41+13:00,OnegEC01_4th copy.bmp,Custom (1305 pixel(s) = 10.0000 mm),mm,130.5,20.63352,OnegEC01,East_Cape,North_Is.,EC,North_Is.
Measurement 26,2019-01-18T14:36:11+13:00,OnegDU58_hi_4th.bmp,Custom (1258 pixel(s) = 10.0000 mm),mm,125.8,25.722372,OnegDU58_hi,Dunedin_Brighton,South_Is.,DU,South_Is.
Measurement 27,2019-01-18T14:36:32+13:00,OnegDU57_hi_4th.bmp,Custom (1269 pixel(s) = 10.0000 mm),mm,126.9,22.536127,OnegDU57_hi,Dunedin_Brighton,South_Is.,DU,South_Is.
Measurement 28,2019-01-18T14:36:59+13:00,OnegDU56_hi_4th.bmp,Custom (1281 pixel(s) = 10.0000 mm),mm,128.1,39.054493,OnegDU56_hi,Dunedin_Brighton,South_Is.,DU,South_Is.
Measurement 29,2019-01-18T14:37:29+13:00,OnegDU55_hi_4th.bmp,Custom (1257 pixel(s) = 10.0000 mm),mm,125.7,19.844005,OnegDU55_hi,Dunedin_Brighton,South_Is.,DU,South_Is.
Measurement 30,2019-01-18T14:37:51+13:00,OnegDU53_lo_4th.bmp,Custom (1329 pixel(s) = 10.0000 mm),mm,132.9,32.90004,OnegDU53_lo,Dunedin_Brighton,South_Is.,DU,South_Is.
Measurement 31,2019-01-18T14:38:10+13:00,OnegDU52_lo_4th.bmp,Custom (1701 pixel(s) = 10.0000 mm),mm,170.1,8.629015,OnegDU52_lo,Dunedin_Brighton,South_Is.,DU,South_Is.
Measurement 32,2019-01-18T14:38:28+13:00,OnegDU49_lo_4th.bmp,Custom (1305 pixel(s) = 10.0000 mm),mm,130.5,17.008382,OnegDU49_lo,Dunedin_Brighton,South_Is.,DU,South_Is.
Measurement 33,2019-01-18T14:38:46+13:00,OnegDU48_lo_4th.bmp,Custom (1809 pixel(s) = 10.0000 mm),mm,180.9,11.308973,OnegDU48_lo,Dunedin_Brighton,South_Is.,DU,South_Is.
Measurement 34,2019-01-18T14:39:10+13:00,OnegDU47_lo_4th.bmp,Custom (1317 pixel(s) = 10.0000 mm),mm,131.7,46.547196,OnegDU47_lo,Dunedin_Brighton,South_Is.,DU,South_Is.
Measurement 35,2019-01-18T14:39:34+13:00,OnegCU09_4th.bmp,Custom (1269 pixel(s) = 10.0000 mm),mm,126.9,38.86228,OnegCU09,Curio_Bay,South_Is.,CU,South_Is.
Measurement 36,2019-01-18T14:39:54+13:00,OnegCU07_4th.bmp,Custom (1749 pixel(s) = 10.0000 mm),mm,174.9,3.933801,OnegCU07,Curio_Bay,South_Is.,CU,South_Is.
Measurement 37,2019-01-18T14:40:17+13:00,OnegCU06_4th.bmp,Custom (1281 pixel(s) = 10.0000 mm),mm,128.1,47.24445,OnegCU06,Curio_Bay,South_Is.,CU,South_Is.
Measurement 38,2019-01-18T14:40:41+13:00,OnegCU05_4th.bmp,Custom (1317 pixel(s) = 10.0000 mm),mm,131.7,35.715706,OnegCU05,Curio_Bay,South_Is.,CU,South_Is.
Measurement 39,2019-01-18T14:41:01+13:00,OnegCU02_4th.bmp,Custom (1293 pixel(s) = 10.0000 mm),mm,129.3,31.735043,OnegCU02,Curio_Bay,South_Is.,CU,South_Is.
Measurement 40,2019-01-18T14:41:21+13:00,OnegCR15_4th_b.bmp,Custom (1821 pixel(s) = 10.0000 mm),mm,182.1,12.295536,OnegCR15,Christchurch,South_Is.,CR,South_Is.
Measurement 41,2019-01-18T14:42:02+13:00,OnegCR12_4th_b.bmp,Custom (1281 pixel(s) = 10.0000 mm),mm,128.1,39.101051,OnegCR12,Christchurch,South_Is.,CR,South_Is.
Measurement 42,2019-01-18T14:42:50+13:00,OnegCR11_4th_b.bmp,Custom (1354 pixel(s) = 10.0000 mm),mm,135.4,32.131067,OnegCR11,Christchurch,South_Is.,CR,South_Is.
Measurement 43,2019-01-18T14:43:15+13:00,OnegCR09_4th_b.bmp,Custom (1796 pixel(s) = 10.0000 mm),mm,179.6,23.389238,OnegCR09,Christchurch,South_Is.,CR,South_Is.
Measurement 44,2019-01-18T14:43:35+13:00,OnegCR08_4th_b.bmp,Custom (1282 pixel(s) = 10.0000 mm),mm,128.2,29.254882,OnegCR08,Christchurch,South_Is.,CR,South_Is.
Measurement 45,2019-01-18T14:43:55+13:00,OnegCR07_4th_b.bmp,Custom (1808 pixel(s) = 10.0000 mm),mm,180.8,21.231168,OnegCR07,Christchurch,South_Is.,CR,South_Is.
Measurement 46,2019-01-18T14:44:14+13:00,OnegCR04_4th_b.bmp,Custom (1317 pixel(s) = 10.0000 mm),mm,131.7,37.017646,OnegCR04,Christchurch,South_Is.,CR,South_Is.
Measurement 47,2019-01-18T14:44:36+13:00,OnegCR03_4th_b.bmp,Custom (1796 pixel(s) = 10.0000 mm),mm,179.6,24.944631,OnegCR03,Christchurch,South_Is.,CR,South_Is.
Measurement 48,2019-01-18T14:44:58+13:00,OnegCP10_4th_b.bmp,Custom (1796 pixel(s) = 10.0000 mm),mm,179.6,6.897876,OnegCP10,Cape_Palliser,North_Is.,CP,Central_NZ
Measurement 49,2019-01-18T14:45:22+13:00,OnegCP09_4th_b.bmp,Custom (1784 pixel(s) = 10.0000 mm),mm,178.4,6.513805,OnegCP09,Cape_Palliser,North_Is.,CP,Central_NZ
Measurement 50,2019-01-18T14:45:46+13:00,OnegCP07_4th_b.bmp,Custom (1784 pixel(s) = 10.0000 mm),mm,178.4,7.245741,OnegCP07,Cape_Palliser,North_Is.,CP,Central_NZ
Measurement 51,2019-01-18T14:46:09+13:00,OnegCP04_4th_b.bmp,Custom (1749 pixel(s) = 10.0000 mm),mm,174.9,8.132982,OnegCP04,Cape_Palliser,North_Is.,CP,Central_NZ
Measurement 52,2019-01-18T14:46:31+13:00,OnegCP01_4th_b.bmp,Custom (1737 pixel(s) = 10.0000 mm),mm,173.7,9.087028,OnegCP01,Cape_Palliser,North_Is.,CP,Central_NZ
Measurement 53,2019-01-18T14:46:54+13:00,OnegAN08_4th_b.bmp,Custom (1761 pixel(s) = 10.0000 mm),mm,176.1,27.195811,OnegAN08,Antipodes_Is.,Subantarctics,AN,Subantarctics
Measurement 54,2019-01-18T14:47:12+13:00,OnegAN07_4th_b.bmp,Custom (1796 pixel(s) = 10.0000 mm),mm,179.6,17.295518,OnegAN07,Antipodes_Is.,Subantarctics,AN,Subantarctics
Measurement 55,2019-01-18T14:47:32+13:00,OnegAN05_4th_b.bmp,Custom (1257 pixel(s) = 10.0000 mm),mm,125.7,47.448782,OnegAN05,Antipodes_Is.,Subantarctics,AN,Subantarctics
Measurement 56,2019-01-18T14:47:58+13:00,OnegAN03_4th_b.bmp,Custom (1761 pixel(s) = 10.0000 mm),mm,176.1,51.791207,OnegAN03,Antipodes_Is.,Subantarctics,AN,Subantarctics
Measurement 57,2019-01-18T14:48:23+13:00,OnegAN01_4th_b.bmp,Custom (1293 pixel(s) = 10.0000 mm),mm,129.3,86.311623,OnegAN01,Antipodes_Is.,Subantarctics,AN,Subantarctics
Measurement 58,2019-01-18T14:48:46+13:00,OnegAK17_4th_b.bmp,Custom (1281 pixel(s) = 10.0000 mm),mm,128.1,30.12954,OnegAK17,Akatore,South_Is.,AK,South_Is.
Measurement 59,2019-01-18T14:49:09+13:00,OnegAK16_4th_b.bmp,Custom (1246 pixel(s) = 10.0000 mm),mm,124.6,42.012772,OnegAK16,Akatore,South_Is.,AK,South_Is.
Measurement 60,2019-01-18T14:49:30+13:00,OnegAK15_4th_b.bmp,Custom (1222 pixel(s) = 10.0000 mm),mm,122.2,41.867722,OnegAK15,Akatore,South_Is.,AK,South_Is.
Measurement 61,2019-01-18T14:49:49+13:00,OnegAK14_4th_b.bmp,Custom (1784 pixel(s) = 10.0000 mm),mm,178.4,19.794316,OnegAK14,Akatore,South_Is.,AK,South_Is.
Measurement 62,2019-01-18T14:50:10+13:00,OnegAK13_4th_b.bmp,Custom (1832 pixel(s) = 10.0000 mm),mm,183.2,26.519148,OnegAK13,Akatore,South_Is.,AK,South_Is.
Measurement 63,2019-01-18T14:50:30+13:00,OnegAK12_4th_b.bmp,Custom (1796 pixel(s) = 10.0000 mm),mm,179.6,24.738469,OnegAK12,Akatore,South_Is.,AK,South_Is.
Measurement 64,2019-01-18T14:50:52+13:00,OnegAK10_4th_b.bmp,Custom (1725 pixel(s) = 10.0000 mm),mm,172.5,7.755581,OnegAK10,Akatore,South_Is.,AK,South_Is.
Measurement 65,2019-01-22T15:29:30+13:00,OngCH19_4th.bmp,Custom (1008 pixel(s) = 10.0000 mm),mm,100.8,21.736426,OnegCH19,Chatham_Is.,Chatham_Is.,CH,Subantarctics
Measurement 66,2019-01-22T15:29:54+13:00,OnegWE24_4th.bmp,Custom (992 pixel(s) = 10.0000 mm),mm,99.2,35.010121,OnegWE24,Wellington,North_Is.,WE,Central_NZ
Measurement 67,2019-01-22T15:30:32+13:00,OnegWE23_4th.bmp,Custom (1008 pixel(s) = 10.0000 mm),mm,100.8,15.499122,OnegWE23,Wellington,North_Is.,WE,Central_NZ
Measurement 68,2019-01-22T15:31+13:00,OnegWE22_4th.bmp,Custom (976 pixel(s) = 10.0000 mm),mm,97.6,21.668927,OnegWE22,Wellington,North_Is.,WE,Central_NZ
Measurement 69,2019-01-22T15:31:33+13:00,OnegWE16_4th.bmp,Custom (992 pixel(s) = 10.0000 mm),mm,99.2,37.790936,OnegWE16,Wellington,North_Is.,WE,Central_NZ
Measurement 70,2019-01-22T15:32:04+13:00,OnegWE10_4th.bmp,Custom (1008 pixel(s) = 10.0000 mm),mm,100.8,10.175146,OnegWE10,Wellington,North_Is.,WE,Central_NZ
Measurement 71,2019-01-22T15:33:13+13:00,OnegWE07_4th.bmp,Custom (1008 pixel(s) = 10.0000 mm),mm,100.8,5.758102,OnegWE07,Wellington,North_Is.,WE,Central_NZ
Measurement 72,2019-01-22T15:33:56+13:00,OnegWE05_4th.bmp,Custom (992 pixel(s) = 10.0000 mm),mm,99.2,17.296842,OnegWE05,Wellington,North_Is.,WE,Central_NZ
Measurement 73,2019-01-22T15:34:17+13:00,OnegWE02_4th.bmp,Custom (992 pixel(s) = 10.0000 mm),mm,99.2,30.737025,OnegWE02,Wellington,North_Is.,WE,Central_NZ
Measurement 75,2019-01-22T15:35:14+13:00,OnegTI21_4th.bmp,Custom (992 pixel(s) = 10.0000 mm),mm,99.2,16.081779,OnegTI21,Auckland,North_Is.,TI,North_Is.
Measurement 76,2019-01-22T15:37:48+13:00,OnegTI19_4th.bmp,Custom (1024 pixel(s) = 10.0000 mm),mm,102.4,16.257,OnegTI19,Auckland,North_Is.,TI,North_Is.
Measurement 77,2019-01-22T15:38:13+13:00,OnegTI16_4th.bmp,Custom (992 pixel(s) = 10.0000 mm),mm,99.2,13.630414,OnegTI16,Auckland,North_Is.,TI,North_Is.
Measurement 78,2019-01-22T15:41:02+13:00,OnegTI14_4th.bmp,Custom (976 pixel(s) = 10.0000 mm),mm,97.6,32.267137,OnegTI14,Auckland,North_Is.,TI,North_Is.
Measurement 79,2019-01-22T15:41:25+13:00,OnegTI13_4th.bmp,Custom (1008 pixel(s) = 10.0000 mm),mm,100.8,23.52214,OnegTI13,Auckland,North_Is.,TI,North_Is.
Measurement 80,2019-01-22T15:41:44+13:00,OnegTI09_4th.bmp,Custom (993 pixel(s) = 10.0000 mm),mm,99.3,29.642746,OnegTI09,Auckland,North_Is.,TI,North_Is.
Measurement 81,2019-01-22T15:42:11+13:00,OnegRU17_4th.bmp,Custom (976 pixel(s) = 10.0000 mm),mm,97.6,19.802304,OnegRU17,Russell,North_Is.,RU,North_Is.
Measurement 82,2019-01-22T15:42:34+13:00,OnegRU16_4th.bmp,Custom (1008 pixel(s) = 10.0000 mm),mm,100.8,24.414505,OnegRU16,Russell,North_Is.,RU,North_Is.
Measurement 83,2019-01-22T15:43:14+13:00,OnegRU15_4th.bmp,Custom (976 pixel(s) = 10.0000 mm),mm,97.6,8.401324,OnegRU15,Russell,North_Is.,RU,North_Is.
Measurement 84,2019-01-22T15:43:44+13:00,OnegRU14_4th.bmp,Custom (992 pixel(s) = 10.0000 mm),mm,99.2,15.895816,OnegRU14,Russell,North_Is.,RU,North_Is.
Measurement 85,2019-01-22T15:44:06+13:00,OnegRU06_4th.bmp,Custom (1024 pixel(s) = 10.0000 mm),mm,102.4,24.424171,OnegRU06,Russell,North_Is.,RU,North_Is.
Measurement 86,2019-01-22T15:44:25+13:00,OnegNC11_4th.bmp,Custom (1040 pixel(s) = 10.0000 mm),mm,104,18.091901,OnegNC11,Coromandel,North_Is.,NC,North_Is.
Measurement 87,2019-01-22T15:44:45+13:00,OnegNC10_4th.bmp,Custom (977 pixel(s) = 10.0000 mm),mm,97.7,31.435399,OnegNC10,Coromandel,North_Is.,NC,North_Is.
Measurement 88,2019-01-22T15:45:02+13:00,OnegNC09_4th.bmp,Custom (1037 pixel(s) = 10.0000 mm),mm,103.7,22.76493,OnegNC09,Coromandel,North_Is.,NC,North_Is.
Measurement 89,2019-01-22T15:45:24+13:00,OnegNC08_4th.bmp,Custom (1024 pixel(s) = 10.0000 mm),mm,102.4,34.962654,OnegNC08,Coromandel,North_Is.,NC,North_Is.
Measurement 90,2019-01-22T15:45:44+13:00,OnegNC05_4th.bmp,Custom (1024 pixel(s) = 10.0000 mm),mm,102.4,47.821331,OnegNC05,Coromandel,North_Is.,NC,North_Is.
Measurement 91,2019-01-22T15:46:02+13:00,OnegNC01_4th.bmp,Custom (1019 pixel(s) = 10.0000 mm),mm,101.9,18.488175,OnegNC01,Coromandel,North_Is.,NC,North_Is.
Measurement 92,2019-01-22T15:46:20+13:00,OnegDU21_4th.bmp,Custom (976 pixel(s) = 10.0000 mm),mm,97.6,45.650111,OnegDU21,Dunedin,South_Is.,DU,South_Is.
Measurement 93,2019-01-22T15:46:39+13:00,OnegDU20_4th.bmp,Custom (976 pixel(s) = 10.0000 mm),mm,97.6,30.8093,OnegDU20,Dunedin,South_Is.,DU,South_Is.
Measurement 94,2019-01-22T15:47:03+13:00,OnegDU16_4th.bmp,Custom (976 pixel(s) = 10.0000 mm),mm,97.6,41.348932,OnegDU16,Dunedin,South_Is.,DU,South_Is.
Measurement 95,2019-01-22T15:47:26+13:00,OnegDU15_4th.bmp,Custom (1008 pixel(s) = 10.0000 mm),mm,100.8,45.782648,OnegDU15,Dunedin,South_Is.,DU,South_Is.
Measurement 96,2019-01-22T15:47:47+13:00,OnegDU13_4th.bmp,Custom (1008 pixel(s) = 10.0000 mm),mm,100.8,32.486733,OnegDU13,Dunedin,South_Is.,DU,South_Is.
Measurement 97,2019-01-22T15:48:09+13:00,OnegDU09_4th.bmp,Custom (1008 pixel(s) = 10.0000 mm),mm,100.8,52.663907,OnegDU09,Dunedin,South_Is.,DU,South_Is.
Measurement 98,2019-01-22T15:48:26+13:00,OnegDU08_4th.bmp,Custom (960 pixel(s) = 10.0000 mm),mm,96,29.440104,OnegDU08,Dunedin,South_Is.,DU,South_Is.
Measurement 99,2019-01-22T15:48:50+13:00,OnegDU04_4th.bmp,Custom (1024 pixel(s) = 10.0000 mm),mm,102.4,34.23748,OnegDU04,Dunedin,South_Is.,DU,South_Is.
Measurement 100,2019-01-22T15:49:14+13:00,OnegCH27_4th.bmp,Custom (1024 pixel(s) = 10.0000 mm),mm,102.4,31.642628,OnegCH27,Chatham_Is.,Chatham_Is.,CH,Subantarctics
Measurement 101,2019-01-22T15:49:31+13:00,OnegCH21_4th.bmp,Custom (1008 pixel(s) = 10.0000 mm),mm,100.8,10.688894,OnegCH21,Chatham_Is.,Chatham_Is.,CH,Subantarctics
Measurement 102,2019-01-22T15:49:51+13:00,OnegCH20_4th.bmp,Custom (1024 pixel(s) = 10.0000 mm),mm,102.4,16.21685,OnegCH20,Chatham_Is.,Chatham_Is.,CH,Subantarctics
Measurement 103,2019-01-22T15:50:08+13:00,OnegCH18_4th.bmp,Custom (1040 pixel(s) = 10.0000 mm),mm,104,22.068232,OnegCH18,Chatham_Is.,Chatham_Is.,CH,Subantarctics
Measurement 104,2019-01-22T15:50:28+13:00,OnegCH17_4th.bmp,Custom (1008 pixel(s) = 10.0000 mm),mm,100.8,35.094049,OnegCH17,Chatham_Is.,Chatham_Is.,CH,Subantarctics
Measurement 105,2019-01-22T15:50:45+13:00,OnegCH08_4th.bmp,Custom (1008 pixel(s) = 10.0000 mm),mm,100.8,49.155959,OnegCH08,Chatham_Is.,Chatham_Is.,CH,Subantarctics
Measurement 106,2019-01-22T15:51:24+13:00,OnegCH04_4th.bmp,Custom (1024 pixel(s) = 10.0000 mm),mm,102.4,45.781612,OnegCH04,Chatham_Is.,Chatham_Is.,CH,Subantarctics
Measurement 107,2019-01-22T15:51:54+13:00,OnegCH03_4th.bmp,Custom (1008 pixel(s) = 10.0000 mm),mm,100.8,50.69661,OnegCH03,Chatham_Is.,Chatham_Is.,CH,Subantarctics
Measurement 108,2019-01-22T15:53:01+13:00,OnegCA26_4th.bmp,Custom (992 pixel(s) = 10.0000 mm),mm,99.2,73.002467,OnegCA26,Campbell_Is.,Subantarctics,CA,Subantarctics
Measurement 109,2019-01-22T15:53:21+13:00,OnegCA24_4th.bmp,Custom (1008 pixel(s) = 10.0000 mm),mm,100.8,40.758555,OnegCA24,Campbell_Is.,Subantarctics,CA,Subantarctics
Measurement 110,2019-01-22T15:53:46+13:00,OnegCA23_4th.bmp,Custom (1008 pixel(s) = 10.0000 mm),mm,100.8,39.371044,OnegCA23,Campbell_Is.,Subantarctics,CA,Subantarctics
Measurement 111,2019-01-22T15:54:07+13:00,OnegCA22_4th.bmp,Custom (976 pixel(s) = 10.0000 mm),mm,97.6,43.494272,OnegCA22,Campbell_Is.,Subantarctics,CA,Subantarctics
Measurement 112,2019-01-22T15:54:26+13:00,OnegCA19_4th.bmp,Custom (992 pixel(s) = 10.0000 mm),mm,99.2,45.209966,OnegCA19,Campbell_Is.,Subantarctics,CA,Subantarctics
Measurement 113,2019-01-22T15:54:52+13:00,OnegCA02_4th.bmp,Custom (961 pixel(s) = 10.0000 mm),mm,96.1,39.512366,OnegCA02,Campbell_Is.,Subantarctics,CA,Subantarctics
Measurement 114,2019-01-22T15:55:13+13:00,OnegBO12_4th.bmp,Custom (960 pixel(s) = 10.0000 mm),mm,96,41.535482,OnegBO12,Bounty_Is.,Subantarctics,BO,Subantarctics
Measurement 115,2019-01-22T15:55:30+13:00,OnegBO10_4th.bmp,Custom (960 pixel(s) = 10.0000 mm),mm,96,34.81467,OnegBO10,Bounty_Is.,Subantarctics,BO,Subantarctics
Measurement 116,2019-01-22T15:55:48+13:00,OnegBO09_4th.bmp,Custom (1008 pixel(s) = 10.0000 mm),mm,100.8,20.93441,OnegBO09,Bounty_Is.,Subantarctics,BO,Subantarctics
Measurement 117,2019-01-22T15:56:04+13:00,OnegBO08_4th.bmp,Custom (944 pixel(s) = 10.0000 mm),mm,94.4,48.216658,OnegBO08,Bounty_Is.,Subantarctics,BO,Subantarctics
Measurement 118,2019-01-22T15:56:21+13:00,OnegBO06_4th.bmp,Custom (992 pixel(s) = 10.0000 mm),mm,99.2,31.046456,OnegBO06,Bounty_Is.,Subantarctics,BO,Subantarctics
Measurement 119,2019-01-22T15:56:37+13:00,OnegBO03_4th.bmp,Custom (1021 pixel(s) = 10.0000 mm),mm,102.1,32.342934,OnegBO03,Bounty_Is.,Subantarctics,BO,Subantarctics
Measurement 120,2019-01-22T15:56:56+13:00,OnegBO01_4th.bmp,Custom (1008 pixel(s) = 10.0000 mm),mm,100.8,47.195059,OnegBO01,Bounty_Is.,Subantarctics,BO,Subantarctics
Measurement 121,2019-01-22T15:57:12+13:00,OnegAU39_4th.bmp,Custom (992 pixel(s) = 10.0000 mm),mm,99.2,31.87628,OnegAU39,Auckland_Is.,Subantarctics,AU,Subantarctics
Measurement 122,2019-01-22T15:57:34+13:00,OnegAU37_4th.bmp,Custom (976 pixel(s) = 10.0000 mm),mm,97.6,21.676171,OnegAU37,Auckland_Is.,Subantarctics,AU,Subantarctics
Measurement 123,2019-01-22T15:57:50+13:00,OnegAu36_4th.bmp,Custom (960 pixel(s) = 10.0000 mm),mm,96,21.728841,OnegAU36,Auckland_Is.,Subantarctics,AU,Subantarctics
Measurement 124,2019-01-22T15:58:07+13:00,OnegAU35_4th.bmp,Custom (1008 pixel(s) = 10.0000 mm),mm,100.8,34.65077,OnegAU35,Auckland_Is.,Subantarctics,AU,Subantarctics
Measurement 125,2019-01-22T15:58:32+13:00,OnegAU34_4th.bmp,Custom (992 pixel(s) = 10.0000 mm),mm,99.2,70.43861,OnegAU34,Auckland_Is.,Subantarctics,AU,Subantarctics
Measurement 126,2019-01-22T15:58:55+13:00,OnegAU32_4th.bmp,Custom (993 pixel(s) = 10.0000 mm),mm,99.3,17.39305,OnegAU32,Auckland_Is.,Subantarctics,AU,Subantarctics
Measurement 127,2019-01-22T15:59:13+13:00,OnegAU23_4th.bmp,Custom (976 pixel(s) = 10.0000 mm),mm,97.6,17.368483,OnegAU23,Auckland_Is.,Subantarctics,AU,Subantarctics
Measurement 128,2019-01-22T15:59:32+13:00,OnegAU17_4th.bmp,Custom (992 pixel(s) = 10.0000 mm),mm,99.2,20.444402,OnegAU17,Auckland_Is.,Subantarctics,AU,Subantarctics
Measurement 129,2019-01-22T15:59:49+13:00,OnegAU16_4th.bmp,Custom (992 pixel(s) = 10.0000 mm),mm,99.2,37.05948,OnegAU16,Auckland_Is.,Subantarctics,AU,Subantarctics
Measurement 130,2019-01-22T16:00:05+13:00,OnegAU02_4th.bmp,Custom (1022 pixel(s) = 10.0000 mm),mm,102.2,33.744988,OnegAU02,Auckland_Is.,Subantarctics,AU,Subantarctics
